Home > Weather > Tiruvarur > Past weeks

Flag for India Past Weather in Tiruvarur, Tamil Nadu, India — Yesterday and Last 2 Weeks

Now
82 °F

Broken clouds.


Feels Like: 88 °F
Forecast: 79 / 99 °F
Wind: 12 mph from West

Location: Tiruchchirapalli

Current Time: Jun 1, 2016 at 7:17:22 AM

Latest Report: Jun 1, 2016 at 6:30 AM


Visibility: 4 mi

Pressure: 29.77 "Hg

Humidity: 74%

Dew Point: 73 °F

Location of TiruvarurLocation

Past Weather in Tiruvarur — Graph

°F

Tiruvarur Temperature Yesterday

Maximum temperature yesterday: 99 °F (at 1:30 PM)
Minimum temperature yesterday: 79 °F (at 8:30 PM)
Average temperature yesterday: 87 °F

High & Low Weather Summary for the Past Weeks

 TemperatureHumidityPressure
High104 °F (May 24, 3:30 PM)100% (May 18, 6:00 AM)29.80 "Hg (May 18, 6:00 AM)
Low73 °F (May 18, 6:00 AM)33% (May 24, 3:30 PM)29.53 "Hg (May 17, 4:00 PM)
Average89 °F63%29.69 "Hg
* Reported May 17 5:30 AM — Jun 1 6:00 AM, Tiruvarur, Weather by CustomWeather, © 2016

Note: Actual official high and low records may vary slightly from our data, if they occured in-between our weather recording intervals... More about our weather records

Advertising

Tiruvarur Weather History for the Previous 24 Hours

Scroll right to see more
 ConditionsComfort  
Time TempWeatherWind HumidityBarometerVisibility
6:00 AM
Wed, Jun 1
81 °FFog.13 mph79%29.74 "Hg3 mi
5:30 AM81 °FFog.12 mph79%29.74 "Hg3 mi
5:00 AM81 °FFog.14 mph79%29.74 "Hg3 mi
4:30 AM81 °FFog.12 mph79%29.74 "Hg3 mi
4:00 AM81 °FFog.12 mph79%29.71 "Hg3 mi
3:30 AM81 °FFog.13 mph79%29.71 "Hg3 mi
3:00 AM81 °FFog.9 mph79%29.71 "Hg3 mi
2:30 AM81 °FFog.9 mph79%29.74 "Hg3 mi
2:00 AM81 °FFog.9 mph84%29.74 "Hg3 mi
1:30 AM81 °FFog.9 mph84%29.74 "Hg3 mi
1:00 AM81 °FFog.12 mph84%29.77 "Hg3 mi
12:30 AM81 °FFog.10 mph84%29.77 "Hg3 mi
12:00 AM81 °FPartly cloudy.10 mph84%29.77 "Hg3 mi
11:30 PM
Tue, May 31
81 °FFog.7 mph84%29.77 "Hg3 mi
11:00 PM81 °FFog.3 mph84%29.80 "Hg3 mi
10:30 PM79 °FPartly cloudy.No wind84%29.80 "Hg3 mi
10:00 PM79 °FPartly cloudy.3 mph84%29.80 "Hg3 mi
9:30 PM79 °FPartly cloudy.3 mph84%29.80 "Hg3 mi
9:00 PM79 °FPartly cloudy.2 mph89%29.80 "Hg3 mi
8:30 PM79 °FPartly cloudy.3 mph89%29.77 "Hg2 mi
8:00 PM82 °FThunderstorms. Mostly cloudy.9 mph89%29.77 "Hg2 mi
7:30 PM82 °FThunderstorms. Mostly cloudy.12 mph84%29.77 "Hg2 mi
7:00 PM82 °FThunderstorms. More clouds than sun.12 mph84%29.77 "Hg1 mi
6:30 PM90 °FThunderstorms. Broken clouds.9 mph52%29.74 "Hg2 mi
6:00 PM95 °FDrizzle. Broken clouds.17 mph47%N/A4 mi
5:30 PM99 °FScattered clouds.9 mph42%29.65 "Hg5 mi
5:00 PM97 °FScattered clouds.9 mph44%29.65 "Hg5 mi
4:30 PM97 °FScattered clouds.6 mph44%29.62 "Hg5 mi
4:00 PM99 °FScattered clouds.9 mph39%29.62 "HgN/A
3:30 PM99 °FScattered clouds.9 mph39%29.62 "HgN/A
3:00 PM99 °FScattered clouds.12 mph39%29.65 "HgN/A
2:30 PM99 °FScattered clouds.12 mph39%29.65 "HgN/A
2:00 PM99 °FPassing clouds.12 mph42%29.68 "HgN/A
1:30 PM99 °FPassing clouds.13 mph42%29.68 "HgN/A
1:00 PM97 °FPassing clouds.13 mph44%29.71 "HgN/A
12:30 PM97 °FPassing clouds.9 mph44%29.71 "HgN/A
12:00 PM95 °FPassing clouds.9 mph50%29.74 "HgN/A
11:30 AM95 °FPassing clouds.13 mph50%29.74 "HgN/A
11:00 AM93 °FPassing clouds.8 mph49%29.77 "HgN/A
10:30 AM93 °FPassing clouds.9 mph49%29.77 "HgN/A
10:00 AM91 °FScattered clouds.9 mph56%29.77 "HgN/A
9:30 AM90 °FScattered clouds.13 mph59%29.77 "Hg5 mi
9:00 AM88 °FScattered clouds.13 mph62%29.77 "Hg5 mi
8:30 AM86 °FScattered clouds.13 mph66%29.77 "Hg5 mi
8:00 AM84 °FScattered clouds.14 mph70%29.74 "Hg5 mi
7:30 AM84 °FScattered clouds.9 mph74%29.74 "Hg4 mi
7:00 AM84 °FScattered clouds.9 mph70%29.74 "Hg4 mi
Weather by CustomWeather, © 2016

See weather overviewHow to use our weather pages